World > North America > United States > Texas > Lorena  

Lorena, TX Hourly Weather Updates

Feedback E-mail the Weather

Quick Clicks

Lorena, TX Weather Maps

°F °C°F °C
Lorena Weather Map
UTC Time: 5/22/2024, 23:24
Your Time:

Lorena, TX Regional Weather

Expires:202405230000;;687239
ASUS44 KFWD 222315
RWRTX 
NORTH TEXAS HOURLY WEATHER ROUNDUP
NATIONAL WEATHER SERVICE FORT WORTH TX
600 PM CDT WED MAY 22 2024

NOTE: "FAIR" INDICATES FEW OR NO CLOUDS BELOW 12,000 FEET WITH NO
SIGNIFICANT WEATHER AND/OR OBSTRUCTIONS TO VISIBILITY.


TXZ143>147-156>162-174-175-230000-
CENTRAL TEXAS
  
CITY           SKY/WX    TMP DP  RH WIND       PRES   REMARKS
WACO           TSTM      79  76  90 W18G25    29.80R FOG              
WACO-TSTC      MOSUNNY   81  73  78 E6        29.74F                  
WACO-MCGREGOR  TSTM      75  73  94 NW30G38   29.80R SQUALL  FOG      
HILLSBORO      FAIR      83  74  75 CALM      29.80R THUNDER          
CORSICANA      LGT RAIN  85  74  69 S7        29.80R HX  92           
MEXIA          FAIR      83  75  78 MISG      29.79R HX  90           
HEARNE         FAIR      87  74  65 SE10      29.75S HX  96           
CAMERON        PTSUNNY   86  75  69 SE7       29.72S HX  95           
TEMPLE         PTSUNNY   85  74  69 E12       29.72F HX  92           
KILLEEN        TSTM      72  70  94 W22G39    29.86R VSB 1            
KILLEEN-SKYLRK CLOUDY    73  66  78 NW30G53   29.82R SQUALL  THUNDER  
FORT CAVAZOS   TSTM      70  66  88 N54G76    29.75R SQUALL  FOG      
GATESVILLE     TSTM      72  72 100 NW26G43   29.88R FOG              
HAMILTON       LGT RAIN  70  68  95 S16       29.76F                  
$$


SKY/WX - Weather  TMP - Temperature  DP - Dew Point  RH - Humidity
WIND - Wind Direction/Speed PRES - Barometric Pressure VSB - Visibility
WCI - Wind Chill Index E13G22 Wind - East Wind 13 mph/Gusts of 22 mph

Trending Headlines

Trending Entertainment Headlines

Lorena Radar Loop

Use the map search tool if you want to place a location marker on the radar map...

Lorena Quick Facts

National Two Day Weather Forecast


E-mail the Lorena Weather Forecast

Voice your opinion or tell us about page issues...